IK5NLA Vaiano IT current weather conditions

sailwx.info

Wind from 087 at 2 knots

Air temperature 10.6° C
Dewpoint 8.8° C

Last reported at 2015-May-23 06:41 UTC.
Time now 2015-May-23 07:19 UTC

Location: N 43°58' E 011°06'.
View on Google Maps.

See reports from other nearby stations

  
Tides and Currents Weather Stations Pressure Air Temp Water Temp Dewpoint Dewpoint Depression Visibility Wind Speed Wind Dir Waves Ship Positions
date/time (UTC)wind fromknots sea level pressurealtimeterstation pressurevisibilityair tempwater tempwave heightnotes
2015-May-23 06:41 087 2 10.6
2015-May-23 06:36 094 2 10.6
2015-May-23 06:31 065 1 10.6
2015-May-23 06:10 083 2 10.6
2015-May-23 06:05 080 3 10.6
2015-May-23 06:00 119 3 10.6
2015-May-23 05:51 074 2 10.0
2015-May-23 05:41 084 2 10.0
2015-May-23 05:36 061 2 10.0
2015-May-23 05:30 108 1 10.0
2015-May-23 05:11 059 2 10.0
2015-May-23 05:06 005 2 10.0
2015-May-23 05:01 032 2 10.0
2015-May-23 04:56 041 1 9.4
2015-May-23 04:50 022 0 9.4
2015-May-23 04:36 355 0 10.0
2015-May-23 04:30 094 0 10.0
2015-May-23 04:17 005 2 9.4
2015-May-23 04:10 059 3 9.4
2015-May-23 04:00 017 2 9.4
2015-May-23 03:26 071 2 9.4
2015-May-23 03:21 076 3 10.0
2015-May-23 03:11 066 3 10.0
2015-May-23 02:50 059 3 10.0
2015-May-23 02:46 014 4 10.0
2015-May-23 02:41 036 3 10.0
2015-May-23 02:36 109 3 9.4
2015-May-23 02:31 068 3 9.4
2015-May-23 02:26 011 3 9.4
2015-May-23 02:21 082 1 9.4
2015-May-23 02:16 026 2 9.4
2015-May-23 02:10 036 3 9.4
2015-May-23 02:06 051 4 9.4
2015-May-23 02:00 019 4 9.4
2015-May-23 01:51 044 3 9.4
2015-May-23 01:46 015 3 9.4
2015-May-23 01:41 329 1 9.4
2015-May-23 01:31 126 1 9.4
2015-May-23 01:26 069 2 9.4
2015-May-23 01:21 099 2 9.4
2015-May-23 01:16 342 3 9.4
2015-May-23 01:10 360 3 8.9
2015-May-23 00:50 120 0 8.9
2015-May-23 00:41 101 0 8.9
2015-May-23 00:30 164 0 8.9
2015-May-23 00:15 092 9.4
2015-May-23 00:10 041 0 9.4
2015-May-22 23:46 107 9.4
2015-May-22 23:40 253 9.4
2015-May-22 23:21 253 0 9.4
2015-May-22 23:10 303 0 9.4
2015-May-22 23:06 217 0 9.4
2015-May-22 22:35 202 0 10.0
2015-May-22 22:30 087 0 10.0
2015-May-22 22:21 313 2 10.0
2015-May-22 22:00 090 2 10.0
2015-May-22 21:50 345 2 10.0
2015-May-22 21:40 360 0 10.0
2015-May-22 21:26 052 0 10.0
2015-May-22 21:20 094 0 10.0
2015-May-22 21:10 040 2 10.0
2015-May-22 21:00 027 3 10.0
2015-May-22 20:40 005 3 10.0
2015-May-22 20:30 032 3 10.0
2015-May-22 20:10 083 4 10.0
2015-May-22 20:01 011 3 10.0
2015-May-22 19:50 012 5 10.0
2015-May-22 19:41 103 6 10.0
2015-May-22 19:30 049 4 10.0
2015-May-22 19:06 360 5 10.0
2015-May-22 19:01 037 4 10.0
2015-May-22 18:51 057 2 10.0
2015-May-22 18:41 084 3 10.0
2015-May-22 18:30 068 4 10.0
2015-May-22 18:20 050 4 10.0
2015-May-22 18:10 067 4 10.0
2015-May-22 17:56 057 4 10.0
2015-May-22 17:50 034 4 10.0
2015-May-22 17:46 114 5 10.0
2015-May-22 17:41 044 6 10.0
2015-May-22 17:30 015 6 10.6
2015-May-22 17:15 024 6 10.6
2015-May-22 17:10 057 5 10.0
2015-May-22 17:06 059 6 10.0
2015-May-22 17:01 054 6 10.0
2015-May-22 16:56 090 6 10.0
2015-May-22 16:35 042 6 10.6
2015-May-22 16:30 035 5 10.6
2015-May-22 16:26 063 6 10.6
2015-May-22 16:20 075 6 10.6
2015-May-22 16:06 080 7 10.6
2015-May-22 16:01 077 7 10.6
2015-May-22 15:41 071 8 10.6
2015-May-22 14:17 104 6 11.7
2015-May-22 14:06 046 6 11.7
2015-May-22 13:35 042 6 11.1
2015-May-22 13:30 076 6 11.1
2015-May-22 13:26 085 7 11.1
2015-May-22 13:16 076 6 11.1
2015-May-22 13:11 118 6 11.1
2015-May-22 13:01 034 6 11.1
2015-May-22 12:46 070 6 11.7
2015-May-22 12:00 024 7 11.7
2015-May-22 11:50 078 6 11.7
2015-May-22 11:46 040 6 11.7
2015-May-22 11:26 048 6 11.1
2015-May-22 11:21 080 6 11.7
2015-May-22 11:11 095 6 11.7
2015-May-22 10:31 064 6 11.1
2015-May-22 10:11 074 6 11.1
2015-May-22 10:00 040 7 11.1
2015-May-22 09:40 055 5 10.6
2015-May-22 09:36 046 5 10.6
2015-May-22 09:30 051 5 10.6
2015-May-22 09:17 079 5 10.6
2015-May-22 09:00 016 5 10.0
2015-May-22 08:41 096 4 10.0
2015-May-22 08:26 053 4 10.0
2015-May-22 08:16 053 2 9.4
2015-May-22 08:05 146 2 9.4
2015-May-22 07:41 125 1 8.9
2015-May-22 07:30 060 2 8.9
2015-May-22 07:06 061 0 8.3
2015-May-22 06:55 064 2 8.3
2015-May-22 06:50 142 2 8.3
2015-May-22 06:41 045 3 8.3
2015-May-22 06:36 009 3 8.3
2015-May-22 06:31 071 3 8.3
2015-May-22 06:15 066 4 8.3
2015-May-22 05:46 059 4 8.9
2015-May-22 05:35 071 6 8.9
2015-May-22 05:30 005 7 9.4
2015-May-22 05:15 040 7 9.4
2015-May-22 05:10 026 6 9.4
2015-May-22 05:06 081 6 9.4
2015-May-22 04:56 067 6 10.0
2015-May-22 04:41 065 6 10.0
2015-May-22 03:56 032 6 10.0
2015-May-22 02:46 022 7 10.0
2015-May-22 01:36 070 5 10.0
2015-May-22 00:56 082 6 10.0
2015-May-22 00:40 035 6 10.0
2015-May-22 00:20 022 6 10.0
2015-May-22 00:05 033 5 9.4
2015-May-22 00:00 005 5 10.0
2015-May-21 23:50 067 5 10.0
2015-May-21 23:20 078 4 9.4
2015-May-21 23:16 098 5 9.4
2015-May-21 23:10 078 5 9.4
2015-May-21 22:50 051 4 10.0
2015-May-21 22:30 046 4 10.0
2015-May-21 22:10 063 4 9.4
2015-May-21 21:51 360 5 10.0
2015-May-21 21:30 334 4 10.0
2015-May-21 21:26 044 4 10.0
2015-May-21 21:11 088 5 10.0
2015-May-21 21:01 085 4 10.0
2015-May-21 20:51 125 4 10.0
2015-May-21 20:30 067 5 10.0
2015-May-21 20:26 060 5 10.0
2015-May-21 20:16 071 5 10.0
2015-May-21 20:10 005 3 10.0
2015-May-21 19:40 334 4 10.0
2015-May-21 19:20 044 4 10.0
2015-May-21 19:01 090 4 10.0
2015-May-21 18:50 355 5 10.0
2015-May-21 18:40 355 4 10.0
2015-May-21 18:30 011 4 10.0
2015-May-21 18:21 024 5 10.6
2015-May-21 18:16 025 4 10.6
2015-May-21 18:11 066 4 10.6
2015-May-21 18:01 350 4 10.6
2015-May-21 17:30 070 2 11.1
2015-May-21 17:20 019 2 11.1
2015-May-21 17:06 068 3 11.7
2015-May-21 16:51 316 4 11.7
2015-May-21 16:46 314 2 11.7
2015-May-21 16:41 323 2 11.7
2015-May-21 16:36 053 3 11.7
2015-May-21 16:31 053 3 11.7
2015-May-21 16:21 018 4 11.7
2015-May-21 16:10 048 5 11.1
2015-May-21 16:01 005 4 11.1
2015-May-21 15:16 022 7 11.1
2015-May-21 14:35 347 7 10.0
2015-May-21 14:21 338 7 10.0
2015-May-21 14:11 342 6 10.0
2015-May-21 13:31 119 4 11.7
2015-May-21 13:20 051 2 12.8
2015-May-21 13:15 122 1 13.3
2015-May-21 13:10 082 1 13.3
2015-May-21 13:06 069 3 13.3
2015-May-21 13:01 044 4 13.3
2015-May-21 12:50 064 5 13.3
2015-May-21 12:30 346 6 13.9
2015-May-21 12:21 326 7 13.3
2015-May-21 12:06 050 4 13.3
2015-May-21 11:31 051 3 12.2
2015-May-21 11:16 355 2 11.7
2015-May-21 11:05 034 1 11.7
2015-May-21 10:50 105 1 12.2
2015-May-21 10:45 080 1 12.8
2015-May-21 10:40 044 2 12.8
2015-May-21 10:35 030 2 12.8
2015-May-21 10:30 028 2 12.2
2015-May-21 10:05 028 2 12.2
2015-May-21 09:55 096 4 12.8
2015-May-21 09:50 134 3 12.2
2015-May-21 09:35 044 3 12.2
2015-May-21 09:20 031 4 11.7
2015-May-21 09:10 074 4 11.7
2015-May-21 09:05 033 5 12.2
2015-May-21 09:00 084 4 11.7
2015-May-21 08:45 088 2 11.7
2015-May-21 08:30 175 0 11.1
2015-May-21 08:25 175 1 11.1
2015-May-21 08:20 221 1 11.1
2015-May-21 08:15 203 1 11.1
2015-May-21 08:00 173 1 11.7
2015-May-21 07:55 169 0 12.2
2015-May-21 07:50 010 0 12.2
2015-May-21 07:40 005 1 11.7
2015-May-21 07:30 106 1 11.7
2015-May-21 07:25 106 0 11.7
2015-May-21 07:20 106 0 11.7
2015-May-21 07:15 106 0 11.7
2015-May-21 07:10 107 0 11.7
2015-May-21 07:05 106 0 11.7